Regional Weather Roundup
Issued by NWS

Home | Current Version | Previous Version | Graphics & Text | Print | Product List | Glossary On
Versions: 1 2 3 4 5 6 7 8 9 10 11 12 13 14 15 16 17 18 19 20 21 22 23 24 25 26 27 28 29 30 31 32 33 34 35 36 37 38 39 40 41 42 43 44 45 46 47 48 49 50
000
ASUS43 KDTX 050910
RWRMI
MICHIGAN HOURLY REGIONAL WEATHER ROUNDUP
NATIONAL WEATHER SERVICE DETROIT/PONTIAC MI
400 AM EST THU MAR 05 2015

NOTE: "FAIR" INDICATES FEW OR NO CLOUDS BELOW 12,000 FEET WITH NO
SIGNIFICANT WEATHER AND/OR OBSTRUCTION TO VISIBILITY.

MIZ047>049-052>055-059>063-066>070-074>076-081>083-051000-
SOUTHEAST LOWER MICHIGAN

CITY           SKY/WX    TMP DP  RH WIND       PRES   REMARKS
ADRIAN         PTCLDY    11  -2  56 N5        30.29S
ALMA           CLEAR      3  -6  66 N3        30.32R
ANN ARBOR      PTCLDY    11   0  61 N7        30.28S
BAD AXE        CLEAR      3  -6  66 N6        30.27F
DETROIT CITY   PTCLDY    13  -1  54 N9        30.29S
DETROIT        CLOUDY    13   1  59 NW7       30.30F
FLINT          CLEAR      6  -2  69 N7        30.30F
GROSSE ILE     MOCLDY    14   1  57 NW6       30.28R
HILLSDALE      PTCLDY     8  -4  58 NW5       30.25R
HOWELL         CLEAR      6  -2  68 CALM      30.28R

CITY           SKY/WX    TMP DP  RH WIND       PRES   REMARKS
JACKSON        CLEAR      7  -3  64 NW3       30.27S
LAMBERTVILLE   MOCLDY    18   1  49 N5        30.30S
LANSING        CLEAR      5  -4  66 N5        30.31R
LAPEER         NOT AVBL
MASON          CLEAR      7  -2  66 N3        30.28R
MT. CLEMENS    PTCLDY     9   0  67 NW7       30.28R
PONTIAC        CLEAR      8  -1  66 N6        30.26S
PORT HOPE        N/A      6  -6  57 NW9G21    30.26F
PORT HURON     PTCLDY     7   0  72 N3        30.29F
TRI CITIES     PTCLDY     3  -5  69 N5        30.32S
YPSILANTI      PTCLDY    13   0  56 N15       30.29F WCI  -3
$$
MIZ043>046-050>051-056>058-064>065-071>073-077>080-051000-
SOUTHWEST LOWER MICHIGAN

CITY           SKY/WX    TMP DP  RH WIND       PRES   REMARKS
BATTLE CREEK   CLEAR      7  -4  60 CALM      30.29R
BENTON HARBOR  CLOUDY    14   4  64 VRB3      30.32S
BIG RAPIDS     CLEAR     -3  -5  89 CALM      30.28F
COLDWATER      CLEAR      7  -4  60 CALM      30.29R
HOLLAND        PTCLDY     7   3  84 CALM      30.33R
GRAND RAPIDS   PTCLDY     6  -2  69 NE6       30.31R
KALAMAZOO      CLEAR      9  -2  61 N3        30.30R
MARSHALL       CLEAR      4  -5  67 CALM      30.28R
MUSKEGON       CLEAR     10   3  73 N6        30.33S
$$
MIZ016>042-051000-
NORTHERN LOWER MICHIGAN

CITY           SKY/WX    TMP DP  RH WIND       PRES   REMARKS
ALPENA         CLEAR     -1  -8  72 W7        30.28F
BEAVER ISLAND  CLEAR    -10 -13  85 CALM      30.31F
BELLAIRE       CLEAR    -14 -19  76 CALM      30.33F
CADILLAC       MOCLDY   -10 -17  72 CALM      30.23F
CHARLEVOIX     CLEAR     -2  -8  76 CALM      30.34F
FRANKFORT      CLOUDY     8  -1  65 N5        30.32F
GAYLORD        CLEAR    -13 -17  82 SW3       30.23F
GRAYLING       PTCLDY   -18 -25  70 CALM      30.26F
HARBOR SPRINGS CLEAR     -5 -10  80 CALM      30.29F
HOUGHTON LAKE  PTCLDY    -6 -10  83 NW5       30.25F
MANISTEE       CLOUDY     7   0  72 E6        30.33S
OSCODA         CLEAR     -3 -10  74 NW7       30.28F
PELLSTON       CLEAR    -19 -23  81 CALM      30.30F
TRAVERSE CITY    N/A     -6 -10  83 CALM      30.31F
$$
MIZ007>008-015-051000-
EASTERN UPPER MICHIGAN

CITY           SKY/WX    TMP DP  RH WIND       PRES   REMARKS
KINROSS        CLEAR     -9 -11  92 W6        30.27F
MACKINAC ISLAN MOCLDY    -3  -8  80 W8        30.28F
NEWBERRY       CLEAR    -13 -14  92 W6        30.27F
S. S. MARIE    CLEAR     -6 -13  71 W5        30.27F HAZE
$$
MIZ004>006-011>014-085-051000-
CENTRAL UPPER MICHIGAN

CITY           SKY/WX    TMP DP  RH WIND       PRES   REMARKS
MANISTIQUE     CLEAR     -8 -12  82 W7        30.31F
ESCANABA       CLEAR     -8  -8 100 W8        30.34F
MENOMINEE      CLEAR     -4 -13  65 NW3       30.35S
SAWYER-GWINN   CLEAR    -10 -15  78 W5        30.25S
$$
MIZ001>003-009>011-084-051000-
WESTERN UPPER MICHIGAN

CITY           SKY/WX    TMP DP  RH WIND       PRES   REMARKS
IRON MOUNTAIN  CLEAR    -10 -17  71 CALM      30.29S
HOUGHTON       CLEAR    -17 -23  73 NW8       30.26F
COPPER HARBOR    N/A      1  -8  66 W6        30.30S
IRONWOOD       CLEAR     -8 -15  71 SW8       30.28S
$$

ABBREVIATIONS USED IN REMARKS
   TC - TEMPERATURE IN CELSIUS
  WCI - WIND CHILL INDEX
   HX - HEAT INDEX
  VSB - VISIBILITY



USA.gov is the U.S. government's official web portal to all federal, state and local government web resources and services.